COSMOS 1275 DEB, 42129

Orbit data source: Space-Track

COSMOS 1275 DEB, 42129 is space debris in LEO originally from a launch on Thu, 04 Jun 1981 UTC launched from the Plesetsk Missile And Space Complex (PKMTR). Debris objects in space refer to the collection of defunct objects orbiting the Earth. Examples of debris include non-operational satellites, rocket bodies, and fragments generated from explosions, collisions, or faulty payload assembly.

Loading next visibility...
Identifier
42129, 1981-053QR
Orbit
LEO
Country
Flag of CISCIS
Related business
Manufacturer
Unknown
Mission
Spacecraft
Bus & Motor
Unknown
Mass
Unknown
Launch date (UTC)
1981-06-04 (44 years ago)
Launch vehicle
Unknown
Launch site
Plesetsk Missile And Space Complex (PKMTR)
Object type
Payload
Rocket body
Debris
Shape & HBR
Unknown shape, 0.1 m
Radar Cross Section
Small (<0.1 m²)

Expand to show TLE details & history
Last TLE update: 1 month ago

TLE from 1 month ago
0 COSMOS 1275 DEB
1 42129U 81053QR  25259.06810347  .00001057  00000-0  82021-3 0  9996
2 42129  82.8444 196.7056 0062306 352.5413   7.4818 13.90860651559606
Epoch: 2025-09-16T01:38Z
TLE epoch observation values (Epoch: 2025-09-16T01:38:04.139Z)
Latitude
-0.00005°
Longitude
176.92463°
Altitude
883.412 km
Speed
7.433 km/s
True Right ascension
13h 06m 49s
True Declination
0° 00' 00"
Sunlit
Object was in daylight at epoch
Visualization orbit readout
Latitude
Unknown
Longitude
Unknown
Altitude
Unknown
Speed
Unknown
Apparent Right ascension
Unknown
Apparent Declination
Unknown
Sunlit
N/A
Visualization observer readout
Local Sidereal Time
06:45:49
Azimuth
Unknown
Elevation
Unknown
Doppler factor
Unknown
Orbital elements
Apogee altitude
968.236 km
Perigee altitude
877.258 km
Semi-major axis
7,300.884 km
Eccentricity
0.00623
Inclination
82.8444°
RAAN
196.7056°
Arg. of periapsis
352.5413°
True anomaly
7.57549°
Mean anomaly
7.4818°
Eccentric anomaly
7.52857°
Mean motion
3.4792 °/min
Orbital period
103.47 mins
BSTAR
0.00082021
Loading maneuver chart data...
Computing Atmospheric mass density...

Documentation

Showing up to 5 results
|